Other Public Products
Issued by NWS Grand Forks, ND

Home | Current Version | Previous Version | Graphics & Text | Print | Product List | Glossary On
Versions: 1 2 3 4 5 6 7 8 9 10 11 12 13 14 15 16 17 18 19 20 21 22 23 24 25 26 27 28 29 30 31 32 33 34 35 36 37 38 39 40 41 42 43 44 45 46 47 48 49 50
000
FPUS83 KFGF 232031
OPUFGF
PRAIRIE TO PINES WEATHER ROUNDUP
NATIONAL WEATHER SERVICE EASTERN NORTH DAKOTA/GRAND FORKS ND
200 PM CST THU FEB 23 2017

 **SATELLITE DATA USED TO AUGMENT SKY COVER AT AUTOMATED STATIONS**
 *****  WEATHER ACROSS EASTERN NORTH DAKOTA  *****

CITY           SKY/WX    TMP DP  RH WIND       PRES   REMARKS
GRAND FORKS    CLOUDY    26  14  60 N14       30.07S WCI  14
GRAND FORKS AF CLOUDY    26  18  72 NE16      30.07S WCI  13
GRAND CITY NWS NOT AVBL
BUXTON         NOT AVBL
DEVILS LAKE    CLOUDY    25  21  85 NE9       30.05S WCI  15
FARGO          CLOUDY    31  22  69 N15       30.03R WCI  20
WAHPETON ARPT  CLOUDY    30  21  69 N16G22    30.01S WCI  19
$$

 *****  WEATHER ACROSS CENTRAL AND WESTERN NORTH DAKOTA  *****

CITY           SKY/WX    TMP DP  RH WIND       PRES   REMARKS
JAMESTOWN      CLOUDY    30  23  75 NE10      30.00F WCI  21
BISMARCK       CLOUDY    32  25  75 NE8       30.04R WCI  25
MINOT          FAIR      26  17  68 NW13      30.07F WCI  15
MINOT AFB      FAIR      24  15  67 N12       30.07F WCI  13
GARRISON         N/A     24  16  71 NE12      30.04F WCI  13
WILLISTON      CLOUDY    27  22  81 NE12      30.08R WCI  17
DICKINSON      SNOW      24  23  96 NE14      29.98R VSB 1/2 WCI  12
HETTINGER      CLOUDY    32  25  75 NE10      29.97F WCI  24
$$

 *****  OTHER OBSERVATIONS NORTHEAST NORTH DAKOTA  *****

CITY           SKY/WX    TMP DP  RH WIND       PRES   REMARKS
WALHALLA       NOT AVBL
LANGDON        NOT AVBL
CAVALIER         N/A     25  16  68 N10       30.10S WCI  15
GRAFTON        CLOUDY    25  16  68 N15       30.11S WCI  12
CANDO          NOT AVBL
FORT TOTTEN      N/A     28  26  90 NE5       29.95S WCI  23
ROLLA          CLOUDY    21  16  79 N13       30.05S WCI   9
RUGBY            N/A     25  18  74 N9        30.07R WCI  15
 ***** THE ABOVE OBSERVATIONS ARE NON NWS ARE NOT QUALITY
        CONTROLLED AND MAY MIS-REPORT RAIN FOR SNOW...
$$

 *****  OTHER OBSERVATIONS SOUTHEAST NORTH DAKOTA *****

CITY           SKY/WX    TMP DP  RH WIND       PRES   REMARKS
COOPERSTOWN    CLOUDY    27  25  93 NE10      30.03S WCI  17
VALLEY CITY    CLOUDY    28  28 100 NE12      30.03S WCI  18
OAKES          NOT AVBL
GWINNER        CLOUDY    30  27  86 N20       30.00F WCI  18
SHEYENNE NWR     N/A     29  21  73 NE14      29.95S WCI  18
BUFFALO        NOT AVBL
WYNDMERE         N/A     30  25  80 N15         N/A  WCI  19
 ***** THE ABOVE OBSERVATIONS ARE NON NWS ARE NOT QUALITY
       CONTROLLED AND MAY MIS-REPORT RAIN FOR SNOW...
$$

  *****  WEATHER ACROSS NORTHERN MINNESOTA  *****

CITY           SKY/WX    TMP DP  RH WIND       PRES   REMARKS
FLAG ISLAND    FAIR      21   9  58 NW23      30.01S WCI   5
WARROAD        CLOUDY    23  12  63 NW12G21   30.04S WCI  12
ROSEAU         CLOUDY    23  16  74 N14       30.04S WCI  11
HALLOCK        CLOUDY    25  14  63 N16       30.08S WCI  12
THF RVR FALLS    N/A     27  16  63 MISG        N/A
HALSTAD        NOT AVBL
FOSSTON        CLOUDY    25  18  74 N10       30.03R WCI  15
BAUDETTE       FAIR      23  11  60 NW14      29.99F WCI  11
WASKISH        FAIR      27  14  59 NW6       30.00R WCI  20
CROOKSTON      CLOUDY    27  18  69 N20G25    30.07R WCI  13
$$
  *****  WEATHER ACROSS CENTRAL AND WEST MINNESOTA  *****

CITY           SKY/WX    TMP DP  RH WIND       PRES   REMARKS
BEMIDJI        FAIR      27  17  68 N8        29.98S WCI  18
PARK RAPIDS    FAIR      28  17  63 N9        29.96S WCI  19
WADENA         FAIR      27  19  74 N9        29.96S WCI  17
DETROIT LAKES  PTSUNNY   28  23  80 N10G17    30.00S WCI  19
MOORHEAD       CLOUDY    28  21  74 N15G23    30.04S WCI  17
FERGUS FALLS   PTSUNNY   28  21  74 N13       30.02F WCI  18
ELBOW LAKE     FAIR      28  22  78 NE9       29.98S WCI  19
MORRIS MN      PTSUNNY   30  25  80 NE12      29.95F WCI  21
STAPLES        FAIR      27  21  80 N10       29.96S WCI  17
WHEATON        CLOUDY    28  21  74 N16       30.01S WCI  17
$$
  *****  WEATHER ELSEWHERE ACROSS MINNESOTA  *****

CITY           SKY/WX    TMP DP  RH WIND       PRES   REMARKS
DULUTH         CLOUDY    28  22  78 N9        29.91F WCI  19
INTRNTL FALLS  FAIR      25  11  55 NW14      29.96F WCI  13
ELY            FAIR      30  12  47 NW10      29.90R WCI  21
CLOQUET        CLOUDY    28  21  74 N6        29.94S WCI  22
BRAINERD       PTSUNNY   28  21  75 N8        29.96F WCI  20
HIBBING        CLOUDY    25  19  78 NW10      29.93F WCI  15
ALEXANDRIA     PTSUNNY   29  23  78 N10       29.95F WCI  20
SAINT CLOUD    PTSUNNY   29  22  75 NE6       29.95S WCI  23
MINNEAPOLIS    CLOUDY    36  22  56 NE13G24   29.90F
$$

  *****  WEATHER ACROSS SOUTH DAKOTA  *****

CITY           SKY/WX    TMP DP  RH WIND       PRES   REMARKS
SIOUX FALLS    SNOW      30  29  96 NE17      29.83F VSB 1/2 WCI  18
BROOKINGS      PTSUNNY   30  24  78 NE18      29.86F WCI  18
WATERTOWN      CLOUDY    28  21  75 NE21      29.90F WCI  15
HURON          CLOUDY    32  24  72 NE20      29.91F WCI  20
SISSETON         N/A     29  24  82 NE20      29.98S WCI  16
ABERDEEN       CLOUDY    29  20  69 NE20      29.97F WCI  16
MITCHELL       SNOW      31  29  92 NE17      29.89S VSB 1/2 WCI  19
PIERRE         CLOUDY    31  22  69 NE17      29.91F WCI  19
MOBRIDGE       PTSUNNY   34  24  67 NE14      29.95S WCI  25
RAPID CITY     LGT SNOW  27  23  85 N13       29.87S VSB 3/4 WCI  16
$$

  *****  SOME WEATHER IN NEARBY STATES *****

CITY           SKY/WX    TMP DP  RH WIND       PRES   REMARKS
GLASGOW MT     LGT SNOW  29  23  78 E14       30.05F WCI  18
GREAT FALLS MT CLOUDY    27  22  81 N10       29.97F WCI  17
CHEYENNE WY    SNOW      19  15  84 NE18G24   29.60R VSB 1/2 WCI   4
SCOTTSBLUFF NE LGT SNOW  23  18  81 NE20G31   29.69S VSB 3/4 WCI   8
OMAHA NE       CLOUDY    42  34  73 NE13      29.64F
DES MOINES IA  PTSUNNY   46  39  76 E16G24    29.64F
DAVENPORT IA   CLOUDY    46  39  76 E16       29.72F
CHICAGO IL     CLOUDY    42  35  76 NE16      29.81S
EAU CLAIRE WI  FAIR      40  27  59 NE9       29.85F
LA CROSSE WI   FAIR      47  31  53 NE8       29.83R
$$

  *****  SOME NATIONAL WEATHER *****

CITY           SKY/WX    TMP DP  RH WIND       PRES   REMARKS
LA GUARDIA NY  FAIR      64  51  62 S12G17    29.80F
RALEIGH NC     PTSUNNY   73  49  42 S12G17    29.87F
ATLANTA GA     FAIR      73  53  49 SE7       29.83F
NEW ORLEANS LA FAIR      76  61  59 S9        29.77F
OKLAHOMA CITY  FAIR      85  37  18 S17G25    29.41F
ALBUQUERQUE NM FAIR      52   6  15 W23G32    29.71F
SALT LAKE CITY CLOUDY    31  24  75 W14       29.81S WCI  21
LOS ANGELES CA FAIR      59  25  27 NW13G26   30.08F
BOISE ID       LGT SNOW  33  25  72 NW26G32   29.90F WCI  20
SEATTLE WA     PTSUNNY   39  35  86 CALM      30.26F
$$

*** WEATHER ACROSS MANITOBA...SASKATCHEWAN AND ONTARIO ***
                ***ONTARIO***

CITY           SKY/WX    TMP DP  RH WIND       PRES   REMARKS
GERALDTON      CLOUDY    19   7  58 W9G20     29.84R WCI   9
THUNDER BAY    MOSUNNY   32  16  51 NW12G17   29.88R WCI  23
SIOUX LOOKOUT  FLURRIES  18   7  62 NW13G23   29.92R WCI   4
TORONTO        MOSUNNY   59  45  58 NW24      29.69R
BIG TROUT LK   FLURRIES   3  -6  66 NW10G17   29.99  WCI -12
PICKLE LAKE    LGT SNOW   7  -2  66 NW9G17    29.90R DRFTSNOWWCI  -7
DRYDEN         SUNNY     21   9  58 W13G20    29.92S WCI   9
KENORA         MOSUNNY   21   5  49 N13G18    29.97F WCI   9
$$
                *** MANITOBA***

CITY           SKY/WX    TMP DP  RH WIND       PRES   REMARKS
BRANDON        MOSUNNY   25  14  63 NW12G21   30.09F WCI  14
DAUPHIN        SUNNY     25  14  63 W5        30.09F WCI  19
ISLAND LAKE    MOSUNNY    5  -4  66 NW10      30.11R WCI -10
PILOT MOUND      N/A     21  14  73 N5          N/A  WCI  15
THE PAS        MOSUNNY   10  -4  52 NE3       30.15F
THOMPSON       MOSUNNY    1  -9  60 N5        30.20F WCI  -8
WINNIPEG       FLURRIES  21  12  68 N13       30.10F WCI   9
LYNN LAKE      SUNNY      0 -11  60 SE6       30.18S WCI -12
CHURCHILL      MOSUNNY   -6  -9  84 NW7       30.32R WCI -20
GILLAM         MOSUNNY    7  -8  51 N6        30.21R WCI  -3
$$
                ***SASKATCHEWAN***

CITY           SKY/WX    TMP DP  RH WIND       PRES   REMARKS
ESTEVAN        MOSUNNY   25  16  68 NW7       30.10S WCI  17
KINDERSLEY     PTSUNNY   28  14  54 W12       30.06F WCI  18
LLOYDMINSTER   CLOUDY    21  14  73 NW8       30.06F WCI  12
PRINCE ALBERT  PTSUNNY   19   7  58 NW8       30.10F WCI   9
REGINA         FLURRIES  28  18  64 NW14G21   30.07F WCI  17
YORKTON        CLOUDY    27  14  59 NW15G21   30.04F WC


USA.gov is the U.S. government's official web portal to all federal, state and local government web resources and services.